When you browse on this site, cookies collect data to enhance your experience and personalize the content and advertising you see.
Visit our Privacy Policy to learn more. By continuing to use the site, you agree to this use of cookies and data.
  • In Switzerland
  • List of Countries
  • For 7 days
  • Water Temperature
  • Satellite Maps
  • Weather Map
  • Weather Widgets
  • user-avatar
    Login

    Hourly Weather Sad

    Today, 23 January, Wednesday

    Time Temperature Precipitation Wind Pressure Humidity
    00:00 -15°C° 0 mm 3 mps 754 mmHg 90%
    01:00 -14°C° 0 mm 3 mps 754 mmHg 89%
    02:00 -14°C° 0 mm 3 mps 754 mmHg 87%
    03:00 -14°C° 0 mm 3 mps 753 mmHg 86%
    04:00 -14°C° 0 mm 4 mps 753 mmHg 85%
    05:00 -14°C° 0 mm 4 mps 753 mmHg 84%
    06:00 -14°C° 0.1 mm 4 mps 752 mmHg 85%
    07:00 -13°C° 0.1 mm 5 mps 752 mmHg 87%
    08:00 -12°C° 0 mm 5 mps 752 mmHg 90%
    09:00 -12°C° 0.4 mm 6 mps 751 mmHg 91%
    10:00 -11°C° 0.4 mm 6 mps 751 mmHg 93%
    11:00 -11°C° 0.4 mm 7 mps 750 mmHg 94%
    12:00 -11°C° 0.7 mm 7 mps 750 mmHg 94%
    13:00 -9°C° 0.7 mm 7 mps 749 mmHg 94%
    14:00 -9°C° 0.7 mm 7 mps 748 mmHg 95%
    15:00 -8°C° 1.3 mm 7 mps 747 mmHg 95%
    16:00 -7°C° 1.3 mm 7 mps 747 mmHg 95%
    17:00 -7°C° 1.3 mm 7 mps 746 mmHg 96%
    18:00 -6°C° 1.2 mm 7 mps 746 mmHg 95%
    19:00 -4°C° 1.2 mm 7 mps 745 mmHg 95%
    20:00 -2°C° 1.2 mm 7 mps 744 mmHg 95%
    21:00 -2°C° 0.6 mm 7 mps 744 mmHg 96%
    22:00 -2°C° 0.6 mm 7 mps 744 mmHg 98%
    23:00 -1°C° 0.6 mm 6 mps 743 mmHg 99%

    Tomorrow, 24 January, Thursday

    Time Temperature Precipitation Wind Pressure Humidity
    00:00 -1°C° 0.1 mm 6 mps 744 mmHg 99%
    01:00 0°C° 0.1 mm 5 mps 744 mmHg 99%
    02:00 0°C° 0.1 mm 5 mps 744 mmHg 99%
    03:00 -1°C° 0 mm 4 mps 744 mmHg 99%
    04:00 -1°C° 0 mm 4 mps 743 mmHg 99%
    05:00 0°C° 0 mm 3 mps 743 mmHg 99%
    06:00 0°C° 0.1 mm 3 mps 744 mmHg 99%
    07:00 0°C° 0.1 mm 3 mps 744 mmHg 99%
    08:00 0°C° 0.1 mm 3 mps 744 mmHg 99%
    09:00 +1°C° 0.4 mm 2 mps 744 mmHg 99%
    10:00 +2°C° 0.4 mm 2 mps 744 mmHg 99%
    11:00 +2°C° 0.4 mm 2 mps 745 mmHg 99%
    12:00 +2°C° 0.2 mm 2 mps 745 mmHg 99%
    13:00 +2°C° 0.2 mm 2 mps 744 mmHg 99%
    14:00 +2°C° 0.2 mm 2 mps 744 mmHg 99%
    15:00 +2°C° 0.1 mm 2 mps 745 mmHg 99%
    16:00 +2°C° 0.1 mm 2 mps 745 mmHg 99%
    17:00 +2°C° 0.1 mm 2 mps 745 mmHg 99%
    18:00 +2°C° 0.6 mm 2 mps 745 mmHg 99%
    19:00 +2°C° 0.6 mm 2 mps 745 mmHg 99%
    20:00 +2°C° 0.6 mm 2 mps 745 mmHg 99%
    21:00 +2°C° 0.3 mm 2 mps 745 mmHg 99%
    22:00 +1°C° 0.3 mm 2 mps 745 mmHg 98%
    23:00 +1°C° 0.3 mm 2 mps 745 mmHg 97%

    Day after tomorrow, 25 January, Friday

    Time Temperature Precipitation Wind Pressure Humidity
    00:00 +1°C° 0 mm 2 mps 745 mmHg 95%
    01:00 -1°C° 0 mm 3 mps 746 mmHg 93%
    02:00 -1°C° 0 mm 3 mps 746 mmHg 92%
    03:00 -2°C° 0 mm 3 mps 746 mmHg 91%
    04:00 -2°C° 0 mm 3 mps 745 mmHg 91%
    05:00 -2°C° 0 mm 3 mps 745 mmHg 90%
    06:00 -3°C° 0 mm 4 mps 746 mmHg 90%
    07:00 -3°C° 0 mm 4 mps 746 mmHg 90%
    08:00 -3°C° 0 mm 4 mps 746 mmHg 89%
    09:00 -2°C° 0 mm 4 mps 746 mmHg 92%
    10:00 -2°C° 0 mm 5 mps 747 mmHg 94%
    11:00 -1°C° 0 mm 5 mps 747 mmHg 96%
    12:00 -1°C° 0 mm 5 mps 747 mmHg 97%
    13:00 -1°C° 0 mm 5 mps 747 mmHg 98%
    14:00 -1°C° 0 mm 5 mps 747 mmHg 99%
    15:00 -1°C° 0 mm 5 mps 747 mmHg 97%
    16:00 -2°C° 0 mm 5 mps 747 mmHg 95%
    17:00 -2°C° 0 mm 5 mps 747 mmHg 93%
    18:00 -2°C° 0 mm 5 mps 747 mmHg 93%
    19:00 -2°C° 0 mm 5 mps 747 mmHg 93%
    20:00 -2°C° 0 mm 5 mps 747 mmHg 94%
    21:00 -2°C° 0 mm 5 mps 747 mmHg 94%
    22:00 -2°C° 0 mm 5 mps 747 mmHg 94%
    23:00 -2°C° 0 mm 5 mps 747 mmHg 94%

    26 January, Saturday

    Time Temperature Precipitation Wind Pressure Humidity
    00:00 -2°C° 0 mm 4 mps 747 mmHg 95%
    01:00 -1°C° 0 mm 4 mps 747 mmHg 97%
    02:00 -1°C° 0 mm 4 mps 747 mmHg 99%
    03:00 -1°C° 0 mm 4 mps 747 mmHg 99%
    04:00 -1°C° 0 mm 4 mps 746 mmHg 99%
    05:00 0°C° 0 mm 3 mps 746 mmHg 99%
    06:00 0°C° 0 mm 3 mps 746 mmHg 98%
    07:00 0°C° 0 mm 3 mps 746 mmHg 98%
    08:00 -1°C° 0 mm 4 mps 746 mmHg 98%
    09:00 -1°C° 0 mm 4 mps 746 mmHg 98%
    10:00 -1°C° 0 mm 4 mps 746 mmHg 99%
    11:00 -1°C° 0 mm 4 mps 746 mmHg 99%
    12:00 -1°C° 0 mm 4 mps 746 mmHg 99%
    13:00 -1°C° 0 mm 4 mps 746 mmHg 99%
    14:00 -1°C° 0 mm 4 mps 746 mmHg 99%
    15:00 -1°C° 0 mm 4 mps 745 mmHg 99%
    16:00 0°C° 0 mm 3 mps 745 mmHg 98%
    17:00 0°C° 0 mm 3 mps 745 mmHg 97%
    18:00 -1°C° 0 mm 3 mps 745 mmHg 96%
    19:00 -1°C° 0 mm 3 mps 745 mmHg 96%
    20:00 -2°C° 0 mm 3 mps 746 mmHg 96%
    21:00 -2°C° 0 mm 2 mps 745 mmHg 95%
    22:00 -2°C° 0 mm 2 mps 745 mmHg 95%
    23:00 -2°C° 0 mm 2 mps 745 mmHg 95%

    27 January, Sunday

    Time Temperature Precipitation Wind Pressure Humidity
    00:00 -3°C° 0 mm 2 mps 745 mmHg 95%
    01:00 -3°C° 0 mm 2 mps 745 mmHg 96%
    02:00 -4°C° 0 mm 2 mps 745 mmHg 96%
    03:00 -3°C° 0 mm 2 mps 745 mmHg 96%
    04:00 -2°C° 0 mm 2 mps 745 mmHg 97%
    05:00 -2°C° 0 mm 2 mps 744 mmHg 97%
    06:00 -2°C° 0 mm 2 mps 745 mmHg 97%
    07:00 -1°C° 0 mm 2 mps 745 mmHg 97%
    08:00 -1°C° 0 mm 2 mps 745 mmHg 97%
    09:00 -1°C° 0.1 mm 2 mps 745 mmHg 98%
    10:00 -1°C° 0.1 mm 2 mps 745 mmHg 99%
    11:00 -1°C° 0.1 mm 3 mps 745 mmHg 100%
    12:00 -1°C° 0 mm 2 mps 745 mmHg 100%
    13:00 -1°C° 0 mm 2 mps 745 mmHg 100%
    14:00 -1°C° 0 mm 2 mps 745 mmHg 100%
    15:00 -1°C° 0 mm 2 mps 745 mmHg 99%
    16:00 -1°C° 0 mm 3 mps 745 mmHg 98%
    17:00 -1°C° 0 mm 3 mps 745 mmHg 97%
    18:00 -1°C° 0 mm 3 mps 746 mmHg 97%
    19:00 -1°C° 0 mm 3 mps 746 mmHg 97%
    20:00 -1°C° 0 mm 3 mps 746 mmHg 96%
    21:00 -1°C° 0 mm 3 mps 746 mmHg 96%
    22:00 -1°C° 0 mm 3 mps 746 mmHg 95%
    23:00 -1°C° 0 mm 3 mps 746 mmHg 95%

    28 January, Monday

    Time Temperature Precipitation Wind Pressure Humidity
    00:00 -1°C° 0 mm 3 mps 746 mmHg 95%
    01:00 -1°C° 0 mm 3 mps 747 mmHg 95%
    02:00 -1°C° 0 mm 3 mps 747 mmHg 95%
    03:00 -1°C° 0 mm 3 mps 747 mmHg 95%
    04:00 -1°C° 0 mm 3 mps 747 mmHg 96%
    05:00 -1°C° 0 mm 3 mps 747 mmHg 96%
    06:00 -1°C° 0.1 mm 3 mps 747 mmHg 96%
    07:00 -1°C° 0.1 mm 3 mps 747 mmHg 96%
    08:00 -1°C° 0.1 mm 3 mps 748 mmHg 96%
    09:00 -1°C° 0.1 mm 3 mps 748 mmHg 97%
    10:00 -1°C° 0.1 mm 3 mps 748 mmHg 98%
    11:00 -1°C° 0.1 mm 3 mps 748 mmHg 100%
    12:00 -1°C° 0 mm 3 mps 748 mmHg 100%
    13:00 0°C° 0 mm 3 mps 748 mmHg 100%
    14:00 0°C° 0 mm 3 mps 748 mmHg 100%
    15:00 0°C° 0 mm 3 mps 749 mmHg 99%
    16:00 0°C° 0 mm 3 mps 749 mmHg 99%
    17:00 -1°C° 0 mm 2 mps 750 mmHg 98%
    18:00 -1°C° 0 mm 3 mps 750 mmHg 98%
    19:00 -1°C° 0 mm 3 mps 750 mmHg 98%
    20:00 -1°C° 0 mm 3 mps 751 mmHg 98%
    21:00 -1°C° 0 mm 2 mps 751 mmHg 98%
    22:00 -1°C° 0 mm 2 mps 752 mmHg 98%
    23:00 -1°C° 0 mm 2 mps 752 mmHg 98%
    Show more